Faith, SD

9:02 AM MST on February 24, 2017 (GMT -0700)
Faith

Weather History for KD07 - June, 2013

Change the Weather History Date:

Tuesday, June 18, 2013

  Actual Average Record
Temperature  
Mean Temperature 66 °F 66 °F  
Max Temperature 80 °F 79 °F 87 °F (2005)
Min Temperature 52 °F 53 °F 37 °F (2004)
Degree Days  
Heating Degree Days 0 2  
Month to date heating degree days 72 73  
Since 1 June heating degree days 72 73  
Since 1 July heating degree days 7606 7692  
Cooling Degree Days 1 3  
Month to date cooling degree days 12 33  
Year to date cooling degree days 25 45  
Since 1 June cooling degree days 12 33  
Growing Degree Days 16 (Base 50)    
Moisture  
Dew Point 55 °F    
Average Humidity 69    
Maximum Humidity 96    
Minimum Humidity 42    
Precipitation  
Precipitation 0.00 in 0.11 in 0.45 in (2002)
Month to date precipitation 0.86 1.55  
Year to date precipitation 8.50 7.85  
Sea Level Pressure  
Sea Level Pressure 29.99 in    
Wind  
Wind Speed 12 mph (SE)    
Max Wind Speed 18 mph    
Max Gust Speed 25 mph    
T = Trace of Precipitation, MM = Missing Value Source: NWS Daily Summary

Daily Weather History Graph

Daily Weather History Graph

Search for Another Location

Airport or City:

Trip Planner

Search our weather history database for the weather conditions in past years. The results will help you decide how hot, cold, wet, or windy it might be!

Date:

Astronomy

Jun. 18, 2013 Rise Set
Actual Time 5:00 AM MDT 8:37 PM MDT
Civil Twilight 4:23 AM MDT 9:15 PM MDT
Nautical Twilight 3:33 AM MDT 10:05 PM MDT
Astronomical Twilight 2:27 AM MDT 11:11 PM MDT
Moon 3:14 PM MDT (6/18) 1:22 AM MDT (6/18)
Length of Visible Light 16h 52m
Length of Day
15h 37m
Waxing Gibbous, 71% of the Moon is Illuminated
Jun 18
Waxing Gibbous
Jun 23
Full
Jun 29
Last Quarter
Jul 8
New
Jul 15
First Quarter

Hourly Weather History & Observations

Time (MDT) Temp. Heat Index Dew Point Humidity Pressure Visibility Wind Dir Wind Speed Gust Speed Precip Events Conditions
12:56 AM 55.0 °F - 52.0 °F 89% 30.08 in - East 6.9 mph - N/A   Unknown
1:56 AM 54.0 °F - 51.1 °F 90% 30.07 in - East 6.9 mph - N/A   Unknown
2:56 AM 53.1 °F - 51.1 °F 93% 30.06 in - East 8.1 mph - N/A   Unknown
3:56 AM 52.0 °F - 50.0 °F 93% 30.07 in - East 8.1 mph - N/A   Unknown
4:56 AM 54.0 °F - 51.1 °F 90% 30.08 in - SSE 5.8 mph - N/A   Unknown
5:56 AM 55.0 °F - 52.0 °F 89% 30.08 in - ESE 10.4 mph - N/A   Unknown
6:56 AM 57.9 °F - 51.1 °F 78% 30.07 in - ESE 11.5 mph - N/A   Unknown
7:56 AM 63.0 °F - 53.1 °F 70% 30.07 in - SE 11.5 mph - N/A   Unknown
8:56 AM 66.9 °F - 54.0 °F 63% 30.05 in - SE 11.5 mph - N/A   Unknown
9:56 AM 70.0 °F - 55.9 °F 61% 30.04 in - SE 12.7 mph - N/A   Unknown
10:56 AM 72.0 °F - 57.0 °F 59% 30.03 in - SE 12.7 mph - N/A   Unknown
11:56 AM 75.9 °F - 57.0 °F 52% 30.02 in - SE 13.8 mph 20.7 mph N/A   Unknown
12:56 PM 77.0 °F - 57.9 °F 52% 30.00 in - SSE 11.5 mph 19.6 mph N/A   Unknown
1:56 PM 78.1 °F - 57.0 °F 48% 29.99 in - ESE 13.8 mph - N/A   Unknown
2:56 PM 80.1 °F 80.4 °F 57.0 °F 45% 29.96 in - ESE 13.8 mph 19.6 mph N/A   Unknown
3:56 PM 80.1 °F 80.2 °F 55.9 °F 43% 29.94 in - SE 15.0 mph 20.7 mph N/A   Unknown
4:56 PM 80.1 °F 80.2 °F 55.9 °F 43% 29.92 in - SE 13.8 mph 24.2 mph N/A   Unknown
5:56 PM 79.0 °F - 57.0 °F 47% 29.93 in - SE 9.2 mph - N/A   Unknown
6:56 PM 75.0 °F - 59.0 °F 57% 29.91 in - SE 9.2 mph - N/A   Unknown
7:56 PM 72.0 °F - 57.9 °F 61% 29.89 in - ESE 10.4 mph - N/A   Unknown
8:56 PM 70.0 °F - 60.1 °F 71% 29.90 in - ESE 12.7 mph - N/A   Unknown
9:56 PM 69.1 °F - 57.9 °F 68% 29.91 in - SE 15.0 mph - N/A   Unknown
10:56 PM 68.0 °F - 59.0 °F 73% 29.88 in - SE 12.7 mph - N/A   Unknown
11:56 PM 64.9 °F - 57.9 °F 78% 29.86 in - SE 12.7 mph - N/A   Unknown